Regional Weather Roundup
Issued by NWS

Home | Current Version | Previous Version | Graphics & Text | Print | Product List | Glossary On
Versions: 1 2 3 4 5 6 7 8 9 10 11 12 13 14 15 16 17 18 19 20 21 22 23 24 25 26 27 28 29 30 31 32 33 34 35 36 37 38 39 40 41 42 43 44 45 46 47 48 49 50
665
ASUS43 KLSX 300407
RWRMO

WEATHER SUMMARY FOR MISSOURI
NATIONAL WEATHER SERVICE SPRINGFIELD MO
1100 PM CDT WED MAR 29 2017

NOTE: "FAIR" INDICATES FEW OR NO CLOUDS BELOW 12,000 FEET WITH NO
       SIGNIFICANT WEATHER AND/OR OBSTRUCTIONS TO VISIBILITY.
       CURRENT SKY AND/OR WEATHER CONDITIONS ARE NOT AVAILABLE FOR
       CHILLICOTHE AND FARMINGTON.

MOZ001>031-035>038-043-044-053-054-300500-
...NORTHERN AND WESTERN MISSOURI...

CITY           SKY/WX    TMP DP  RH WIND       PRES   REMARKS
KANSAS CTY INT DRIZZLE   53  53 100 E14       29.66F FOG
KANSAS C DTWN  MOCLDY    55  53  93 NE8       29.64F
LEE`S SUMMIT   CLOUDY    54  54 100 NE12      29.65F FOG
ST JOSEPH      LGT RAIN  53  52  96 E21G29    29.66F FOG
CHILLICOTHE      N/A     53  51  93 NE10G17   29.71S
KIRKSVILLE     CLOUDY    50  32  50 NE13      29.74S

$$
MOZ066>068-077>081-088>096-101>105-300500-
...SOUTHWEST MISSOURI...

CITY           SKY/WX    TMP DP  RH WIND       PRES   REMARKS
SPRINGFIELD    RAIN      62  56  80 W12       29.66S
JOPLIN         MOCLDY    58  51  78 SW13      29.67F

$$
MOZ032>034-039>042-045>050-055>058-069>072-300500-
...CENTRAL MISSOURI...

CITY           SKY/WX    TMP DP  RH WIND       PRES   REMARKS
COLUMBIA       LGT RAIN  60  59  96 SE8       29.67F
JEFFERSON CITY   N/A     63  32  31 E3        29.67F THUNDER
ROLLA          LGT RAIN  63  62  97 SE14G32   29.67F FOG
SEDALIA        CLEAR     61  59  93 CALM      29.63F
WHITEMAN AFB   LGT RAIN  55  55 100 N7        29.62F
WARRENSBURG    CLOUDY    55  54  94 CALM      29.65R THUNDER FOG
OSAGE BEACH    CLOUDY    62  60  93 SE6       29.66F

$$
MOZ051-052-059>065-300500-
...EAST CENTRAL MISSOURI...

CITY           SKY/WX    TMP DP  RH WIND       PRES   REMARKS
ST LOUIS INTL  LGT RAIN  62  53  72 SE16      29.76F
SPIRIT OF STL  TSTM      64  56  75 E10       29.74S
ST CHARLES     CLOUDY    58  54  86 E8        29.76S

$$
MOZ072>076-082>087-097>100-106>115-300500-
...SOUTH CENTRAL AND SOUTHEAST MISSOURI...

CITY           SKY/WX    TMP DP  RH WIND       PRES   REMARKS
CAPE GIRARDEAU PTCLDY    66  58  75 SE10      29.76F
FARMINGTON     CLOUDY    67  59  75 SE10      29.74F
POPLAR BLUFF   CLOUDY    68  59  73 SE6       29.73F
WEST PLAINS    CLOUDY    64  60  87 SW6       29.71F

$$



USA.gov is the U.S. government's official web portal to all federal, state and local government web resources and services.